FDX2002 VRMM-VRMV

Flight info

Callsign FDX2002
Flight time 0h 23m
Altitude 10000
Route MLE DCT MISAQ
Aircraft B722/M-SDFGHRWY/C

Departure

Time 2026-04-12 09:40
Airport Velana International Airport (VRMM)

Arrival

Time 2026-04-12 10:03
Airport Villa International Airport Maamigili (VRMV)
Time Latitude Longitude Altitude Speed Heading
2026-04-12 09:04 4.18630 73.52792 20 ft 0 kts 269°
2026-04-12 09:27 4.18630 73.52805 21 ft 2 kts 269°
2026-04-12 09:27 4.18630 73.52814 21 ft 2 kts 268°
2026-04-12 09:28 4.18633 73.52828 22 ft 2 kts 247°
2026-04-12 09:28 4.18641 73.52842 22 ft 2 kts 232°
2026-04-12 09:28 4.18651 73.52852 22 ft 2 kts 216°
2026-04-12 09:28 4.18664 73.52859 22 ft 2 kts 200°
2026-04-12 09:29 4.18679 73.52863 23 ft 2 kts 184°
2026-04-12 09:29 4.18686 73.52863 23 ft 1 kts 176°
2026-04-12 09:29 4.18689 73.52863 23 ft 0 kts 178°
2026-04-12 09:36 4.18685 73.52863 23 ft 2 kts 180°
2026-04-12 09:36 4.18652 73.52860 22 ft 5 kts 187°
2026-04-12 09:37 4.18613 73.52866 21 ft 4 kts 133°
2026-04-12 09:37 4.18605 73.52890 21 ft 4 kts 101°
2026-04-12 09:37 4.18592 73.52916 20 ft 4 kts 150°
2026-04-12 09:37 4.18561 73.52934 19 ft 6 kts 145°
2026-04-12 09:38 4.18545 73.52982 18 ft 9 kts 96°
2026-04-12 09:38 4.18538 73.53043 15 ft 5 kts 97°
2026-04-12 09:38 4.18532 73.53086 14 ft 6 kts 75°
2026-04-12 09:38 4.18558 73.53100 14 ft 3 kts
2026-04-12 09:39 4.18573 73.53101 15 ft 3 kts
2026-04-12 09:39 4.18595 73.53101 15 ft 3 kts
2026-04-12 09:39 4.18644 73.53101 16 ft 15 kts 360°
2026-04-12 09:39 4.18987 73.53101 22 ft 85 kts
2026-04-12 09:40 4.19816 73.53101 16 ft 150 kts 360°
2026-04-12 09:40 4.20933 73.53097 372 ft 164 kts
2026-04-12 09:40 4.22069 73.53112 927 ft 167 kts 359°
2026-04-12 09:40 4.23231 73.53118 1470 ft 169 kts 358°
2026-04-12 09:41 4.24388 73.53139 2049 ft 168 kts
2026-04-12 09:41 4.25558 73.53117 2609 ft 168 kts 356°
2026-04-12 09:41 4.26705 73.53090 3143 ft 169 kts 356°
2026-04-12 09:41 4.27929 73.53087 3497 ft 186 kts 357°
2026-04-12 09:42 4.28921 73.53083 3771 ft 203 kts 357°
2026-04-12 09:42 4.30373 73.53082 4292 ft 219 kts 356°
2026-04-12 09:42 4.31925 73.53098 4923 ft 232 kts 355°
2026-04-12 09:43 4.37046 73.53083 7214 ft 259 kts 355°
2026-04-12 09:43 4.38826 73.52969 8031 ft 255 kts 336°
2026-04-12 09:43 4.40243 73.52002 8844 ft 244 kts 303°
2026-04-12 09:44 4.40858 73.50494 9537 ft 242 kts 273°
2026-04-12 09:44 4.40568 73.48769 9789 ft 267 kts 245°
2026-04-12 09:44 4.39346 73.47292 9858 ft 293 kts 218°
2026-04-12 09:44 4.37389 73.46482 9880 ft 316 kts 193°
2026-04-12 09:45 4.35163 73.46614 9878 ft 332 kts 170°
2026-04-12 09:45 4.32912 73.47271 9874 ft 337 kts 167°
2026-04-12 09:45 4.30721 73.47931 9856 ft 321 kts 174°
2026-04-12 09:45 4.28621 73.47810 9855 ft 292 kts 202°
2026-04-12 09:46 4.26812 73.47041 9853 ft 277 kts 211°
2026-04-12 09:46 4.25110 73.46107 9863 ft 281 kts 213°
2026-04-12 09:46 4.23404 73.45130 9867 ft 286 kts 213°
2026-04-12 09:46 4.21658 73.44155 9868 ft 291 kts 212°
2026-04-12 09:47 4.19868 73.43192 9868 ft 296 kts 211°
2026-04-12 09:47 4.18028 73.42232 9867 ft 299 kts 211°
2026-04-12 09:47 4.16177 73.41285 9865 ft 299 kts 211°
2026-04-12 09:47 4.14318 73.40343 9864 ft 300 kts 210°
2026-04-12 09:48 4.12462 73.39404 9864 ft 301 kts 210°
2026-04-12 09:48 4.10603 73.38462 9864 ft 301 kts 210°
2026-04-12 09:48 4.08726 73.37510 9864 ft 302 kts 210°
2026-04-12 09:48 4.06837 73.36551 9864 ft 303 kts 210°
2026-04-12 09:49 4.04960 73.35596 9864 ft 303 kts 210°
2026-04-12 09:49 4.03073 73.34637 9866 ft 304 kts 210°
2026-04-12 09:49 4.01203 73.33686 9866 ft 305 kts 210°
2026-04-12 09:49 3.99312 73.32725 9863 ft 302 kts 210°
2026-04-12 09:50 3.97465 73.31786 9861 ft 298 kts 210°
2026-04-12 09:50 3.95628 73.30853 9861 ft 294 kts 210°
2026-04-12 09:50 3.93805 73.29927 9861 ft 290 kts 211°
2026-04-12 09:50 3.92014 73.29016 9861 ft 287 kts 211°
2026-04-12 09:51 3.90251 73.28118 9855 ft 284 kts 211°
2026-04-12 09:51 3.88508 73.27231 9846 ft 279 kts 211°
2026-04-12 09:51 3.86793 73.26359 9724 ft 273 kts 211°
2026-04-12 09:51 3.85124 73.25508 9496 ft 270 kts 211°
2026-04-12 09:52 3.83476 73.24667 9270 ft 266 kts 211°
2026-04-12 09:52 3.81837 73.23830 9043 ft 263 kts 211°
2026-04-12 09:52 3.80211 73.23000 8814 ft 259 kts 211°
2026-04-12 09:52 3.78631 73.22193 8588 ft 255 kts 211°
2026-04-12 09:53 3.77058 73.21390 8360 ft 251 kts 211°
2026-04-12 09:53 3.75510 73.20602 8133 ft 248 kts 211°
2026-04-12 09:53 3.73990 73.19830 7907 ft 245 kts 211°
2026-04-12 09:53 3.72482 73.19061 7646 ft 244 kts 211°
2026-04-12 09:54 3.70970 73.18291 7370 ft 243 kts 211°
2026-04-12 09:54 3.69470 73.17525 7097 ft 243 kts 211°
2026-04-12 09:54 3.67980 73.16764 6825 ft 243 kts 211°
2026-04-12 09:54 3.66472 73.15995 6550 ft 243 kts 211°
2026-04-12 09:55 3.64973 73.15231 6261 ft 236 kts 211°
2026-04-12 09:55 3.63549 73.14510 5979 ft 226 kts 211°
2026-04-12 09:55 3.62147 73.13800 5709 ft 226 kts 211°
2026-04-12 09:55 3.60731 73.13078 5434 ft 227 kts 211°
2026-04-12 09:56 3.59336 73.12366 5163 ft 228 kts 211°
2026-04-12 09:56 3.57922 73.11643 4890 ft 229 kts 210°
2026-04-12 09:56 3.56496 73.10915 4616 ft 230 kts 210°
2026-04-12 09:56 3.55064 73.10183 4213 ft 237 kts 210°
2026-04-12 09:57 3.53573 73.09419 3735 ft 241 kts 210°
2026-04-12 09:57 3.52104 73.08670 3250 ft 233 kts 210°
2026-04-12 09:57 3.50691 73.07954 2772 ft 226 kts 210°
2026-04-12 09:57 3.49508 73.07009 2289 ft 215 kts 235°
2026-04-12 09:58 3.48837 73.05698 1907 ft 211 kts 253°
2026-04-12 09:58 3.48518 73.04304 1754 ft 200 kts 262°
2026-04-12 09:58 3.48345 73.02972 1697 ft 185 kts 264°
2026-04-12 09:58 3.48230 73.01739 1663 ft 168 kts 266°
2026-04-12 09:59 3.48157 73.00627 1676 ft 152 kts 266°
2026-04-12 09:59 3.48094 72.99612 1680 ft 146 kts 267°
2026-04-12 09:59 3.48030 72.98576 1700 ft 150 kts 266°
2026-04-12 09:59 3.47965 72.97514 1747 ft 150 kts 266°
2026-04-12 10:00 3.47900 72.96474 1756 ft 150 kts 266°
2026-04-12 10:00 3.47835 72.95425 1729 ft 151 kts 266°
2026-04-12 10:00 3.47766 72.94377 1702 ft 147 kts 266°
2026-04-12 10:00 3.47699 72.93374 1685 ft 144 kts 266°
2026-04-12 10:01 3.47633 72.92355 1608 ft 149 kts 266°
2026-04-12 10:01 3.47566 72.91314 1397 ft 149 kts 266°
2026-04-12 10:01 3.47501 72.90293 1211 ft 142 kts 266°
2026-04-12 10:01 3.47439 72.89317 1002 ft 139 kts 266°
2026-04-12 10:02 3.47377 72.88347 822 ft 140 kts 266°
2026-04-12 10:02 3.47315 72.87374 642 ft 140 kts 266°
2026-04-12 10:02 3.47253 72.86393 465 ft 142 kts 266°
2026-04-12 10:02 3.47185 72.85408 297 ft 142 kts 266°
2026-04-12 10:03 3.47127 72.84438 99 ft 139 kts 267°
2026-04-12 10:03 3.47068 72.83520 18 ft 117 kts 266°
2026-04-12 10:03 3.47029 72.82899 18 ft 49 kts 266°
2026-04-12 10:03 3.47019 72.82760 18 ft 8 kts 266°
2026-04-12 10:04 3.47001 72.82698 18 ft 10 kts 253°
2026-04-12 10:04 3.47017 72.82670 18 ft 3 kts 26°
2026-04-12 10:04 3.47023 72.82697 18 ft 5 kts 87°
2026-04-12 10:04 3.47025 72.82748 18 ft 9 kts 87°
2026-04-12 10:05 3.47029 72.82828 18 ft 14 kts 87°
2026-04-12 10:05 3.47034 72.82935 18 ft 16 kts 88°
2026-04-12 10:05 3.47038 72.83053 18 ft 17 kts 86°
2026-04-12 10:05 3.47045 72.83177 18 ft 18 kts 86°
2026-04-12 10:06 3.47053 72.83304 18 ft 18 kts 86°
2026-04-12 10:06 3.47061 72.83436 18 ft 16 kts 86°
2026-04-12 10:06 3.47090 72.83474 18 ft 6 kts
2026-04-12 10:06 3.47139 72.83474 18 ft 7 kts 358°
2026-04-12 10:07 3.47185 72.83472 18 ft 4 kts 359°
2026-04-12 10:07 3.47211 72.83490 18 ft 5 kts 64°
2026-04-12 10:07 3.47220 72.83530 18 ft 6 kts 84°
2026-04-12 10:07 3.47224 72.83574 18 ft 6 kts 85°
2026-04-12 10:08 3.47226 72.83626 18 ft 7 kts 88°
2026-04-12 10:08 3.47227 72.83662 18 ft 3 kts 86°
2026-04-12 10:08 3.47229 72.83691 18 ft 4 kts 86°
2026-04-12 10:08 3.47232 72.83726 18 ft 5 kts 83°
2026-04-12 10:09 3.47250 72.83760 18 ft 6 kts 51°
2026-04-12 10:09 3.47263 72.83772 18 ft 0 kts 38°
2026-04-12 10:09 3.47265 72.83774 18 ft 0 kts 38°
2026-04-12 10:09 3.47268 72.83777 18 ft 0 kts 37°
2026-04-12 10:10 3.47269 72.83777 18 ft 0 kts 37°